Back to catalog

KONGJIAN HUANGJING JIANCE

AliveScienceSSO
NORAD 67752·PAYLOAD·🇨🇳 China
This satellite name has not been confirmed by official sources yet.

Launched Feb 12, 2026 from South China Sea Launch Area

Loading…

Next Passes (next 24 hours)

TLE

FreshSource: Space-Track

Epoch: Sep 14, 2026, 07:06 UTC

1 67752U 26027G   26257.29603672  .00004687  00000-0  25988-3 0  9991
2 67752  97.5175  23.3686 0010796 305.6458  54.3768 15.14218531 32385

Track KONGJIAN HUANGJING JIANCE in real time with AllMySat

Download on the App Store